ECHOSTAR 3

Last updated on Sept. 4, 2017, 12:18 a.m. UTC

1 25004U 97059A   17245.69990648 -.00000065  00000-0  00000-0 0  9993
2 25004   2.3145  74.8099 0004138 257.1897 103.2687  0.98875296 72875
UTC
Height (km)
Latitude
Longitude
Inclination
Orbital Period
UTC large
Height (km)
Speed (km/s)
/
Latitude / Longitude
Inclination (degrees)
Orbital Period (minutes)
Azimuth
Elevation
Range (km)
Doppler Factor
iOS Compass Heading
iOS Angle

Next 30 passes for location: Hong Kong

Rise time Rise Azimuth (degrees) Set time Set Azimuth (degrees) Duration Max altitude (degrees)

No matching passes for this satellites